Location: ????????
(55.8351°N, 38.7040°E)
Time: 20:39:52
(UTC+00:00)

Cosmos 192 - Pass Details

Date: 14 April 2024
Orbit: 699 x 710 km, 74.0° (Epoch: 18 May)

Event Time Altitude Azimuth Distance (km) Brightness Sun altitude
Rises 00:25:12 0° 329° (NNW) 3,098 7.8 -14.8°
Reaches altitude 10° 00:27:33 10° 325° (NW) 2,176 7.0 -14.5°
Maximum altitude 00:32:19 54° 250° (WSW) 854 4.4 -14.1°
Drops below altitude 10° 00:37:05 10° 173° (S) 2,165 6.5 -13.6°
Sets 00:39:25 0° 169° (S) 3,081 7.3 -13.3°
